Terug naar catalogus

SL-8 DEB

ActiefLEO
NORAD 21167·DEBRIS·🇷🇺 Russia

Gelanceerd Feb 12, 1991 vanaf Plesetsk Cosmodrome

Loading…

Volgende Passages (komende 24 uur)

TLE

VersSource: Space-Track

Epoch: Sep 14, 2026, 07:47 UTC

1 21167U 91009AE  26257.32487752 -.00000025  00000-0 -73733-4 0  9992
2 21167  73.9182  18.6693 0137526 338.6260  48.1064 12.29325577594345

Volg SL-8 DEB in realtime met AllMySat

Download on the App Store